Regional Weather Roundup
Issued by NWS

Home | Current Version | Previous Version | Graphics & Text | Print | Product List | Glossary On
Versions: 1 2 3 4 5 6 7 8 9 10 11 12 13 14 15 16 17 18 19 20 21 22 23 24 25 26 27 28 29 30 31 32 33 34 35 36 37 38 39 40 41 42 43 44 45 46 47 48 49 50
000
ASUS43 KLMK 231402
RWRKY
KENTUCKY REGIONAL WEATHER ROUNDUP
NATIONAL WEATHER SERVICE LOUISVILLE KY
1000 AM EDT SUN APR 23 2017

NOTE "FAIR" INDICATES FEW OR NO CLOUDS BELOW 12,000 FEET
WITH NO SIGNIFICANT WEATHER AND/OR OBSTRUCTIONS TO VISIBILITY.

KYZ001>023-026-027-061>063-070>075-231500-
WESTERN AND SOUTH CENTRAL KENTUCKY

CITY           SKY/WX    TMP DP  RH WIND       PRES   REMARKS
PADUCAH        CLOUDY    50  38  63 N13       29.96S
HENDERSON      CLOUDY    51  40  65 NE13      29.99R
OWENSBORO      CLOUDY    50  39  66 NE18      29.96S
HOPKINSVILLE   CLOUDY    48  46  93 N15       29.89S
BOWLING GREEN  LGT RAIN  48  47  96 NE9       29.91F FOG
GLASGOW        NOT AVBL
$$

KYZ024-025-028>034-038-045-046-053-231500-
NORTH CENTRAL KENTUCKY

CITY           SKY/WX    TMP DP  RH WIND       PRES   REMARKS
LOUISVILLE/SDF PTSUNNY   53  39  59 NE16      29.98S
LOUISVILLE/LOU CLOUDY    53  37  54 NE12G20   29.99S
FORT KNOX      CLOUDY    49  38  66 NE14G23   29.94S
$$

KYZ035>037-039>044-047>052-055>060-089>105-231500-
NORTHEAST KENTUCKY

CITY           SKY/WX    TMP DP  RH WIND       PRES   REMARKS
LEXINGTON      CLOUDY    48  38  68 NE13      29.96F
COVINGTON      MOSUNNY   51  38  60 E16       30.03R
FRANKFORT      CLOUDY    49  36  61 NE10      29.97S
$$

KYZ054-064>069-076>088-106>120-231500-
SOUTHEAST KENTUCKY

CITY           SKY/WX    TMP DP  RH WIND       PRES   REMARKS
JACKSON        LGT RAIN  46  45  96 VRB3      29.94S FOG
LONDON         RAIN      48  46  93 NE7       29.89F
SOMERSET       NOT AVBL
MIDDLESBORO    RAIN      52  52 100 CALM      29.89F
MONTICELLO     RAIN      49  48  97 N14G23    29.89F
$$




USA.gov is the U.S. government's official web portal to all federal, state and local government web resources and services.